Latest Weather Observations for Coober Pedy Airport

IDS60801

Issued at 6:05 pm CST Friday 25 July 2014 (issued every 30 minutes, with the page automatically refreshed every 10 minutes)

About weather observations | Map of weather stations | Latest weather observations for SA | Other Formats
Station Details ID: 016090 Name: COOBER PEDY AIRPORT Lat: -29.03 Lon: 134.72 Height: 225.0 m
Data from the previous 72 hours. | See also: Recent months at Coober Pedy Airport
Date/Time
CST
Temp
°C
App
Temp
°C
Dew
Point
Rel
Hum
%
Delta-T
°C
Wind Press
QNH
hPa
Press
MSL
hPa
Rain
since 9 am
mm
Dir
 
Spd
km/h
Gust
km/h
Spd
kts
Gust
kts
25/06:00pm 15.2 11.0 4.0 47 5.2 WSW 15 20 8 11 1023.3 1023.3 0.0
25/05:30pm 16.5 11.3 3.6 42 6.0 W 20 26 11 14 1022.8 - 0.0
25/05:00pm 17.0 11.8 3.7 41 6.3 WSW 20 26 11 14 1022.5 - 0.0
25/04:30pm 17.7 11.7 3.6 39 6.7 WSW 24 32 13 17 1022.3 - 0.0
25/04:00pm 18.0 11.7 3.9 39 6.7 WSW 26 33 14 18 1022.1 - 0.0
25/03:30pm 18.1 11.8 3.6 38 6.9 WSW 26 33 14 18 1021.8 - 0.0
25/03:00pm 17.5 11.5 3.4 39 6.6 WSW 24 32 13 17 1021.8 1021.9 0.0
25/02:30pm 17.7 11.4 3.9 40 6.6 W 26 33 14 18 1021.8 - 0.0
25/02:00pm 17.1 10.8 3.8 41 6.3 W 26 37 14 20 1022.0 - 0.0
25/01:30pm 16.8 12.0 4.8 45 5.8 W 19 24 10 13 1022.1 - 0.0
25/01:00pm 17.3 11.9 4.6 43 6.1 W 22 32 12 17 1022.5 - 0.0
25/12:30pm 16.9 12.1 4.9 45 5.8 W 19 28 10 15 1022.8 - 0.0
25/12:00pm 16.8 12.4 4.5 44 5.8 W 17 24 9 13 1023.2 1023.2 0.0
25/11:30am 16.0 11.6 5.0 48 5.3 W 17 24 9 13 1023.5 - 0.0
25/11:00am 15.5 11.3 5.7 52 4.7 W 17 24 9 13 1023.7 - 0.0
25/10:30am 14.6 10.7 7.2 61 3.7 W 17 20 9 11 1023.9 - 0.0
25/10:00am 13.3 10.0 8.2 71 2.6 W 15 20 8 11 1023.8 - 0.0
25/09:30am 12.0 8.8 8.3 78 1.8 W 15 19 8 10 1023.5 - 0.0
25/09:00am 10.5 7.2 8.1 85 1.2 WNW 15 19 8 10 1023.1 1023.1 0.0
25/08:30am 9.3 6.3 7.6 89 0.8 WNW 13 17 7 9 1022.8 - 0.0
25/08:00am 9.0 6.0 7.5 90 0.7 WNW 13 13 7 7 1022.4 - 0.0
25/07:30am 8.6 5.9 7.2 91 0.7 WNW 11 15 6 8 1022.0 - 0.0
25/07:00am 8.5 5.7 7.1 91 0.7 WNW 11 13 6 7 1021.5 - 0.0
25/06:30am 8.3 5.2 7.1 92 0.6 WNW 13 13 7 7 1021.0 - 0.0
25/06:00am 8.0 5.2 6.8 92 0.6 WNW 11 13 6 7 1020.6 1020.6 0.0
25/05:30am 7.6 4.7 6.4 92 0.6 W 11 13 6 7 1020.4 - 0.0
25/05:00am 7.5 3.8 6.4 93 0.5 W 15 17 8 9 1020.2 - 0.0
25/04:30am 7.1 3.3 5.7 91 0.6 WNW 15 15 8 8 1019.9 - 0.0
25/04:00am 7.5 4.2 6.3 92 0.6 WNW 13 15 7 8 1019.5 - 0.0
25/03:30am 7.3 3.5 5.9 91 0.6 NW 15 17 8 9 1019.2 - 0.0
25/03:00am 7.0 3.5 5.3 89 0.8 WNW 13 15 7 8 1019.1 1019.1 0.0
25/02:30am 7.9 4.9 6.0 88 0.9 W 11 13 6 7 1019.1 - 0.0
25/02:00am 8.4 5.5 6.4 87 0.9 W 11 13 6 7 1019.2 - 0.0
25/01:30am 8.9 5.3 6.9 87 0.9 WNW 15 19 8 10 1019.3 - 0.0
25/01:00am 7.6 3.9 6.2 91 0.6 WNW 15 17 8 9 1019.1 - 0.0
25/12:30am 7.2 3.7 5.5 89 0.8 WNW 13 15 7 8 1019.1 - 0.0
25/12:00am 7.5 4.4 5.6 88 0.9 WNW 11 13 6 7 1019.3 1019.3 0.0
 
Date/Time
CST
Temp
°C
App
Temp
°C
Dew
Point
Rel
Hum
%
Delta-T
°C
Wind Press
QNH
hPa
Press
MSL
hPa
Rain
since 9 am
mm
Dir
 
Spd
km/h
Gust
km/h
Spd
kts
Gust
kts
24/11:30pm 8.6 4.9 6.2 85 1.1 WNW 15 17 8 9 1019.1 - 0.0
24/11:00pm 8.8 5.1 6.2 84 1.2 NW 15 17 8 9 1019.3 - 0.0
24/10:30pm 9.2 5.5 6.1 81 1.4 NW 15 17 8 9 1019.1 - 0.0
24/10:00pm 9.3 5.5 6.0 80 1.5 NW 15 17 8 9 1018.9 - 0.0
24/09:30pm 9.5 5.3 5.7 77 1.8 NW 17 17 9 9 1018.7 - 0.0
24/09:00pm 9.9 6.0 5.5 74 2.0 NW 15 17 8 9 1018.4 1018.4 0.0
24/08:30pm 10.4 7.3 5.6 72 2.2 WNW 11 13 6 7 1018.1 - 0.0
24/08:00pm 11.4 8.4 5.9 69 2.6 WNW 11 11 6 6 1017.8 - 0.0
24/07:30pm 11.5 8.0 5.6 67 2.8 W 13 15 7 8 1017.4 - 0.0
24/07:00pm 12.4 8.5 5.3 62 3.3 W 15 17 8 9 1017.0 - 0.0
24/06:30pm 13.5 9.2 5.4 58 3.8 W 17 19 9 10 1016.7 - 0.0
24/06:00pm 15.0 10.4 5.5 53 4.6 W 19 26 10 14 1016.3 1016.3 0.0
24/05:30pm 15.1 9.9 5.3 52 4.7 W 22 28 12 15 1016.2 - 0.0
24/05:00pm 15.5 10.7 5.7 52 4.7 W 20 28 11 15 1015.9 - 0.0
24/04:30pm 15.9 11.3 5.5 50 5.0 W 19 26 10 14 1015.8 - 0.0
24/04:00pm 16.3 11.7 6.4 52 4.9 W 20 30 11 16 1015.7 - 0.0
24/03:30pm 16.0 11.0 6.4 53 4.7 WSW 22 30 12 16 1015.6 - 0.0
24/03:00pm 15.6 10.4 7.1 57 4.2 WSW 24 30 13 16 1015.6 1015.6 0.0
24/02:30pm 14.9 10.1 7.2 60 3.8 W 22 30 12 16 1015.6 - 0.0
24/02:00pm 14.2 9.4 7.5 64 3.3 WSW 22 30 12 16 1015.9 - 0.0
24/01:30pm 13.7 8.6 7.7 67 3.0 W 24 33 13 18 1016.3 - 0.0
24/01:00pm 12.9 7.4 7.6 70 2.6 WSW 26 32 14 17 1016.6 - 0.0
24/12:49pm 12.7 7.9 7.4 70 2.6 WSW 22 30 12 16 1016.8 - 0.0
24/12:30pm 12.8 7.7 7.7 71 2.5 W 24 32 13 17 1017.1 - 0.0
24/12:00pm 12.2 7.2 7.9 75 2.1 WSW 24 33 13 18 1017.5 1017.5 0.0
24/11:30am 11.3 6.3 8.0 80 1.6 W 24 33 13 18 1018.1 - 0.0
24/11:00am 10.2 5.6 8.1 87 1.0 WSW 22 30 12 16 1018.2 - 0.0
24/10:30am 8.9 3.5 8.0 94 0.4 WSW 26 32 14 17 1018.2 - 0.0
24/10:00am 8.5 3.1 8.1 97 0.2 WSW 26 37 14 20 1018.3 - 0.0
24/09:30am 8.1 3.0 7.7 97 0.2 W 24 30 13 16 1018.0 - 0.0
24/09:00am 7.7 3.5 7.3 97 0.2 W 19 24 10 13 1017.4 1017.4 1.4
24/08:30am 7.4 2.9 7.0 97 0.2 W 20 24 11 13 1017.1 - 1.4
24/08:00am 7.1 3.1 6.7 97 0.2 W 17 20 9 11 1016.8 - 1.4
24/07:30am 7.1 2.5 6.7 97 0.2 WSW 20 26 11 14 1016.1 - 1.4
24/07:12am 6.6 2.1 6.0 96 0.3 W 19 22 10 12 1015.7 - 1.4
24/07:00am 6.6 2.4 5.9 95 0.3 SW 17 22 9 12 1015.1 - 1.4
24/06:30am 6.6 1.9 5.9 95 0.3 SW 20 24 11 13 1014.4 - 1.4
24/06:00am 6.6 2.4 5.6 93 0.4 WSW 17 20 9 11 1014.8 1014.8 1.4
24/05:30am 7.0 2.3 5.9 93 0.5 WSW 20 24 11 13 1014.4 - 1.4
24/05:00am 7.0 2.5 5.9 93 0.5 WSW 19 22 10 12 1014.6 - 1.4
24/04:30am 7.1 2.4 5.9 92 0.5 W 20 24 11 13 1014.8 - 1.4
24/04:00am 7.2 3.0 5.8 91 0.6 W 17 20 9 11 1014.9 - 1.4
24/03:30am 7.7 3.0 6.2 90 0.7 W 20 24 11 13 1015.0 - 1.4
24/03:00am 7.6 2.9 5.9 89 0.8 W 20 22 11 12 1015.1 1015.1 1.4
24/02:30am 7.9 3.2 5.9 87 0.9 W 20 22 11 12 1015.2 - 1.4
24/02:00am 8.1 3.4 5.9 86 1.0 W 20 24 11 13 1015.1 - 1.4
24/01:30am 8.4 3.9 5.9 84 1.2 W 19 22 10 12 1015.1 - 1.4
24/01:00am 8.4 3.9 5.9 84 1.2 W 19 22 10 12 1015.0 - 1.4
24/12:30am 8.6 4.0 5.7 82 1.3 W 19 22 10 12 1015.1 - 1.4
24/12:00am 8.4 4.2 5.7 83 1.2 W 17 20 9 11 1014.8 1014.8 1.4
 
Date/Time
CST
Temp
°C
App
Temp
°C
Dew
Point
Rel
Hum
%
Delta-T
°C
Wind Press
QNH
hPa
Press
MSL
hPa
Rain
since 9 am
mm
Dir
 
Spd
km/h
Gust
km/h
Spd
kts
Gust
kts
23/11:30pm 8.2 4.4 5.7 84 1.1 WNW 15 17 8 9 1015.0 - 1.4
23/11:00pm 8.8 4.9 5.5 80 1.5 W 15 17 8 9 1014.8 - 1.4
23/10:30pm 9.0 5.2 5.7 80 1.5 W 15 17 8 9 1014.9 - 1.4
23/10:00pm 9.0 5.5 5.4 78 1.6 WNW 13 13 7 7 1014.8 - 1.4
23/09:30pm 10.3 6.1 5.5 72 2.2 W 17 19 9 10 1014.8 - 1.4
23/09:00pm 11.0 6.7 5.3 68 2.6 W 17 20 9 11 1014.6 1014.6 1.4
23/08:30pm 11.5 6.9 5.4 66 2.8 WSW 19 22 10 12 1014.5 - 1.4
23/08:00pm 11.6 7.3 5.3 65 2.9 W 17 20 9 11 1014.3 - 1.4
23/07:30pm 12.3 7.9 5.0 61 3.4 W 17 20 9 11 1014.1 - 1.4
23/07:00pm 13.6 7.8 4.5 54 4.2 W 24 30 13 16 1013.7 - 1.4
23/06:30pm 14.6 7.6 4.0 49 4.9 W 30 39 16 21 1013.4 - 1.4
23/06:00pm 15.4 8.4 3.9 46 5.4 W 30 39 16 21 1012.6 1012.6 1.4
23/05:30pm 16.5 8.7 2.9 40 6.3 W 33 41 18 22 1012.4 - 1.4
23/05:00pm 17.5 8.8 1.9 35 7.1 W 37 50 20 27 1012.2 - 1.4
23/04:30pm 18.1 8.5 1.2 32 7.6 W 41 50 22 27 1011.8 - 1.2
23/04:00pm 18.6 8.9 2.9 35 7.4 W 43 56 23 30 1011.5 - 1.2
23/03:50pm 18.8 10.1 4.2 38 7.0 WNW 39 57 21 31 1011.4 - 1.2
23/03:30pm 18.9 10.4 5.0 40 6.8 W 39 54 21 29 1011.5 - 1.2
23/03:00pm 19.1 10.1 6.6 44 6.3 W 43 56 23 30 1011.5 1011.5 1.2
23/02:30pm 19.3 11.2 8.6 50 5.6 WNW 41 52 22 28 1011.6 - 1.2
23/02:00pm 17.9 11.4 9.0 56 4.7 WNW 33 46 18 25 1011.9 - 1.2
23/01:57pm 17.5 11.4 9.7 60 4.1 WNW 32 46 17 25 1011.9 - 1.2
23/01:30pm 15.6 13.1 13.6 88 1.1 NNW 19 22 10 12 1012.0 - 1.2
23/01:00pm 14.8 12.2 13.3 91 0.8 NNW 19 22 10 12 1012.5 - 1.2
23/12:30pm 15.3 11.4 12.2 82 1.7 NW 24 30 13 16 1013.3 - 0.6
23/12:00pm 15.8 11.2 11.2 74 2.5 NW 26 33 14 18 1013.9 1013.8 0.2
23/11:30am 14.4 9.7 10.8 79 1.9 NW 26 41 14 22 1014.4 - 0.2
23/11:00am 15.5 9.2 9.0 65 3.4 N 32 39 17 21 1014.7 - 0.2
23/10:30am 14.8 9.9 9.8 72 2.6 NNW 26 32 14 17 1015.0 - 0.2
23/10:00am 14.4 9.5 8.6 68 3.0 NNW 24 32 13 17 1015.4 - 0.2
23/09:30am 13.8 10.0 7.6 66 3.1 N 17 20 9 11 1015.1 - 0.0
23/09:00am 13.5 9.0 6.1 61 3.6 N 19 24 10 13 1015.0 1015.0 1.0
23/08:30am 13.5 8.4 5.9 60 3.6 N 22 26 12 14 1014.7 - 1.0
23/08:00am 13.0 8.6 6.6 65 3.1 N 19 22 10 12 1014.7 - 1.0
23/07:30am 12.9 8.3 6.3 64 3.2 N 20 26 11 14 1014.7 - 1.0
23/07:00am 13.3 7.5 6.4 63 3.3 N 26 32 14 17 1014.7 - 1.0
23/06:30am 14.1 6.6 6.2 59 3.8 N 35 44 19 24 1014.5 - 1.0
23/06:00am 14.3 7.4 6.6 60 3.8 N 32 43 17 23 1014.4 1014.4 1.0
23/05:30am 13.4 8.5 8.3 71 2.6 NNE 24 30 13 16 1014.4 - 1.0
23/05:00am 12.9 9.7 8.6 75 2.2 N 15 20 8 11 1014.5 - 1.0
23/04:30am 13.5 7.8 8.4 71 2.6 NE 28 33 15 18 1014.4 - 1.0
23/04:00am 12.8 8.2 9.6 81 1.6 NE 24 30 13 16 1014.5 - 1.0
23/03:30am 12.5 7.7 10.2 86 1.2 NE 26 30 14 16 1015.0 - 1.0
23/03:00am 12.2 8.7 10.8 91 0.7 NNE 20 28 11 15 1015.3 1015.3 0.8
23/02:30am 12.2 9.9 10.4 89 0.9 E 13 19 7 10 1014.3 - 0.8
23/02:00am 12.2 10.2 10.3 88 1.0 ESE 11 15 6 8 1015.3 - 0.8
23/01:30am 12.4 11.2 10.3 87 1.1 S 7 11 4 6 1015.8 - 0.8
23/01:00am 12.5 11.3 10.4 87 1.1 SW 7 9 4 5 1017.0 - 0.8
23/12:30am 13.0 10.5 9.6 80 1.8 WSW 13 15 7 8 1017.9 - 0.0
23/12:00am 14.2 10.7 8.6 69 2.8 W 17 20 9 11 1018.3 1018.3 0.0
 
Date/Time
CST
Temp
°C
App
Temp
°C
Dew
Point
Rel
Hum
%
Delta-T
°C
Wind Press
QNH
hPa
Press
MSL
hPa
Rain
since 9 am
mm
Dir
 
Spd
km/h
Gust
km/h
Spd
kts
Gust
kts
22/11:30pm 15.7 10.8 6.7 55 4.5 W 22 26 12 14 1018.6 - 0.0
22/11:00pm 17.8 12.3 7.5 51 5.3 NNW 26 39 14 21 1018.3 - 0.0
22/10:30pm 18.8 14.4 4.6 39 6.9 N 17 35 9 19 1018.3 - 0.0
22/10:00pm 18.5 14.3 3.6 37 7.1 NNW 15 19 8 10 1018.1 - 0.0
22/09:30pm 17.7 13.7 0.4 31 7.6 NNE 11 17 6 9 1018.2 - 0.0
22/09:00pm 17.8 13.2 -1.4 27 8.2 N 13 17 7 9 1018.5 1018.5 0.0
22/08:30pm 18.6 12.8 -1.3 26 8.6 NE 19 24 10 13 1018.2 - 0.0
22/08:00pm 17.6 14.1 -1.6 27 8.1 ENE 7 11 4 6 1018.1 - 0.0
22/07:30pm 17.8 13.5 -1.4 27 8.2 E 11 15 6 8 1017.5 - 0.0
22/07:00pm 18.7 13.6 -1.7 25 8.7 E 15 19 8 10 1017.5 - 0.0
22/06:30pm 19.0 15.3 0.1 28 8.4 E 9 13 5 7 1017.2 - 0.0

Other Formats:

Comma delimited format used in spreadsheet applications
http://www.bom.gov.au/fwo/IDS60801/IDS60801.95458.axf

JavaScript Object Notation format (JSON) in row-major order
http://www.bom.gov.au/fwo/IDS60801/IDS60801.95458.json